Daviess Cnty AP, Washington,, IN

3:05 PM EST on November 13, 2019 (GMT -0500)
Daviess County

Weather History for KDCY - October, 2019

Change the Weather History Date:

Monday, October 21, 2019

  Actual Average (WUND) Record (WUND)
Temperature  
Mean Temperature 60 °F -  
Max Temperature 67 °F - - (-1)
Min Temperature 53 °F - - (-1)
Degree Days  
Heating Degree Days 5    
Growing Degree Days 10 (Base 50)    
Moisture  
Dew Point 58 °F    
Average Humidity 88    
Maximum Humidity 100    
Minimum Humidity 72    
Precipitation  
Precipitation 0.74 in - - ()
Sea Level Pressure  
Sea Level Pressure 29.72 in    
Wind  
Wind Speed 10 mph (South)    
Max Wind Speed 21 mph    
Max Gust Speed 30 mph    
Visibility 10 miles    
Events Rain , Thunderstorm    
Averages and records for this station are not official NWS values.
T = Trace of Precipitation, MM = Missing Value Source: NWS Daily Summary

Daily Weather History Graph

Daily Weather History Graph

Search for Another Location

Airport or City:

Astronomy

Oct. 21, 2019 Rise Set
Actual Time 8:03 AM EDT 7:02 PM EDT
Civil Twilight 7:36 AM EDT 7:29 PM EDT
Nautical Twilight 7:05 AM EDT 8:00 PM EDT
Astronomical Twilight 6:34 AM EDT 8:30 PM EDT
Moon 12:14 AM EDT (10/21) 3:19 PM EDT (10/21)
Length of Visible Light 11h 52m
Length of Day
10h 58m
Waning Gibbous, 48% of the Moon is Illuminated
Oct 21
Waning Gibbous
Oct 27
New
Nov 4
First Quarter
Nov 12
Full
Nov 19
Last Quarter

Hourly Weather History & Observations

Time (EDT) Temp. Dew Point Humidity Pressure Visibility Wind Dir Wind Speed Gust Speed Precip Events Conditions
12:15 AM 53.6 °F 49.6 °F 86% 29.89 in 10.0 mi SSE 5.8 mph - N/A   Scattered Clouds
12:35 AM 55.6 °F 51.3 °F 85% 29.88 in 10.0 mi SSE 8.1 mph - N/A   Scattered Clouds
12:55 AM 54.7 °F 51.3 °F 88% 29.86 in 10.0 mi SSE 6.9 mph - N/A   Clear
1:35 AM 56.5 °F 53.1 °F 88% 29.85 in 10.0 mi SE 5.8 mph - N/A   Overcast
1:55 AM 57.2 °F 54.0 °F 89% 29.84 in 10.0 mi SSE 8.1 mph - N/A   Overcast
2:15 AM 57.6 °F 53.8 °F 87% 29.82 in 10.0 mi SSE 8.1 mph - N/A   Mostly Cloudy
2:35 AM 56.5 °F 53.2 °F 89% 29.82 in 10.0 mi SSE 6.9 mph - N/A   Scattered Clouds
2:55 AM 55.6 °F 53.4 °F 92% 29.82 in 10.0 mi SSE 5.8 mph - N/A   Clear
3:15 AM 56.5 °F 53.6 °F 90% 29.81 in 10.0 mi SSE 5.8 mph - N/A   Clear
3:35 AM 56.3 °F 53.8 °F 91% 29.82 in 10.0 mi SSE 5.8 mph - N/A   Scattered Clouds
3:55 AM 56.5 °F 54.5 °F 93% 29.81 in 10.0 mi SSE 6.9 mph - N/A   Overcast
4:15 AM 56.8 °F 54.3 °F 91% 29.80 in 10.0 mi SSE 6.9 mph - N/A   Scattered Clouds
4:35 AM 57.2 °F 54.5 °F 91% 29.78 in 10.0 mi SSE 8.1 mph - N/A   Scattered Clouds
4:55 AM 58.1 °F 54.7 °F 88% 29.77 in 10.0 mi SE 9.2 mph - N/A   Scattered Clouds
5:15 AM 58.5 °F 54.9 °F 88% 29.78 in 10.0 mi SSE 9.2 mph - N/A   Scattered Clouds
5:35 AM 58.5 °F 54.9 °F 88% 29.75 in 10.0 mi SE 9.2 mph - N/A   Scattered Clouds
5:55 AM 58.6 °F 55.2 °F 88% 29.74 in 10.0 mi SE 10.4 mph - N/A   Scattered Clouds
6:35 AM 59.5 °F 55.4 °F 86% 29.70 in 10.0 mi SE 10.4 mph - N/A Thunderstorm Clear
6:55 AM 59.9 °F 55.8 °F 86% 29.71 in 10.0 mi SE 10.4 mph - N/A   Scattered Clouds
7:15 AM 60.8 °F 55.8 °F 83% 29.69 in 10.0 mi SE 13.8 mph 17.3 mph N/A   Overcast
7:35 AM 60.6 °F 56.7 °F 87% 29.69 in 10.0 mi SSE 15.0 mph - N/A Rain Light Rain
7:50 AM 60.4 °F 57.2 °F 89% 29.68 in 10.0 mi SE 16.1 mph 21.9 mph N/A Rain , Thunderstorm Light Thunderstorms and Rain
8:15 AM 60.1 °F 59.9 °F 99% 29.74 in 7.0 mi West 20.7 mph 29.9 mph 0.06 in Rain , Thunderstorm Heavy Thunderstorms and Rain
8:35 AM 59.5 °F 59.2 °F 99% 29.70 in 7.0 mi SSE 12.7 mph 17.3 mph 0.24 in Rain , Thunderstorm Rain
8:55 AM 60.1 °F 59.9 °F 99% 29.73 in 7.0 mi SSW 11.5 mph 16.1 mph 0.34 in Rain , Thunderstorm Rain
9:15 AM 60.4 °F 60.1 °F 99% 29.73 in 5.0 mi South 9.2 mph 16.1 mph 0.06 in Rain , Thunderstorm Rain
9:35 AM 60.4 °F 60.1 °F 99% 29.70 in 10.0 mi SSE 10.4 mph - 0.07 in Rain Rain
9:55 AM 60.6 °F 60.3 °F 99% 29.69 in 10.0 mi SSE 12.7 mph - 0.08 in Rain Rain
10:10 AM 60.8 °F 60.3 °F 98% 29.70 in 10.0 mi SSE 13.8 mph - 0.01 in Rain , Thunderstorm Light Thunderstorms and Rain
10:35 AM 60.8 °F 60.6 °F 99% 29.70 in 7.0 mi SSE 13.8 mph - 0.05 in Rain Rain
10:55 AM 60.8 °F 60.8 °F 100% 29.67 in 7.0 mi SE 13.8 mph - 0.07 in Rain Rain
11:15 AM 60.8 °F 60.6 °F 99% 29.69 in 2.5 mi South 12.7 mph - 0.12 in Rain Heavy Rain
11:30 AM 61.0 °F 60.8 °F 99% 29.70 in 5.0 mi SW 12.7 mph - 0.18 in Rain Light Rain
11:50 AM 61.2 °F 61.0 °F 99% 29.66 in 7.0 mi SE 12.7 mph - 0.25 in Rain Rain
12:15 PM 62.8 °F 62.4 °F 99% 29.63 in 10.0 mi SE 17.3 mph - N/A   Scattered Clouds
12:35 PM 65.3 °F 64.8 °F 98% 29.63 in 10.0 mi SSE 17.3 mph 23.0 mph N/A   Scattered Clouds
12:55 PM 65.8 °F 65.1 °F 98% 29.64 in 10.0 mi SSE 20.7 mph 24.2 mph N/A   Clear
1:15 PM 66.2 °F 65.3 °F 97% 29.63 in 10.0 mi South 18.4 mph 25.3 mph N/A   Scattered Clouds
1:35 PM 66.0 °F 65.1 °F 97% 29.62 in 10.0 mi SSE 20.7 mph 27.6 mph N/A   Light Drizzle
1:55 PM 66.4 °F 65.5 °F 97% 29.64 in 10.0 mi South 18.4 mph - N/A   Mostly Cloudy
2:15 PM 67.5 °F 64.4 °F 90% 29.65 in 10.0 mi SSW 15.0 mph 19.6 mph N/A   Scattered Clouds
2:35 PM 67.6 °F 63.9 °F 88% 29.65 in 10.0 mi SW 12.7 mph 20.7 mph N/A   Mostly Cloudy
2:55 PM 67.1 °F 64.2 °F 90% 29.64 in 10.0 mi SW 11.5 mph 17.3 mph N/A   Overcast
3:15 PM 66.6 °F 64.2 °F 92% 29.65 in 10.0 mi SW 11.5 mph 16.1 mph N/A Rain Light Rain
3:35 PM 66.2 °F 64.4 °F 94% 29.65 in 10.0 mi SW 10.4 mph - N/A   Light Drizzle
3:55 PM 66.2 °F 64.4 °F 94% 29.64 in 10.0 mi SW 9.2 mph - N/A   Light Drizzle
4:15 PM 65.7 °F 63.5 °F 93% 29.64 in 10.0 mi SSW 10.4 mph - N/A   Overcast
4:35 PM 66.4 °F 63.1 °F 89% 29.64 in 10.0 mi SSW 9.2 mph - N/A   Mostly Cloudy
4:55 PM 66.4 °F 62.1 °F 86% 29.65 in 10.0 mi SSW 13.8 mph - N/A   Mostly Cloudy
5:15 PM 66.6 °F 61.2 °F 83% 29.65 in 10.0 mi South 18.4 mph 25.3 mph N/A   Overcast
5:35 PM 66.6 °F 57.2 °F 72% 29.64 in 10.0 mi SSW 18.4 mph 28.8 mph N/A   Overcast
5:55 PM 66.2 °F 57.0 °F 72% 29.65 in 10.0 mi South 17.3 mph 27.6 mph N/A   Overcast
6:15 PM 65.5 °F 57.0 °F 74% 29.66 in 10.0 mi SSW 13.8 mph 20.7 mph N/A   Overcast
6:35 PM 64.9 °F 57.2 °F 76% 29.66 in 10.0 mi SSW 19.6 mph 27.6 mph N/A   Mostly Cloudy
6:55 PM 64.4 °F 57.7 °F 79% 29.67 in 10.0 mi SSW 13.8 mph 21.9 mph N/A   Mostly Cloudy
7:15 PM 63.7 °F 58.1 °F 82% 29.68 in 10.0 mi South 12.7 mph - N/A   Scattered Clouds
7:35 PM 63.5 °F 57.7 °F 81% 29.69 in 10.0 mi South 12.7 mph 18.4 mph N/A   Scattered Clouds
7:55 PM 63.5 °F 57.9 °F 82% 29.70 in 10.0 mi SSW 11.5 mph - N/A   Mostly Cloudy
8:15 PM 63.5 °F 57.6 °F 81% 29.70 in 10.0 mi SSW 12.7 mph - N/A   Mostly Cloudy
8:35 PM 63.3 °F 56.7 °F 79% 29.71 in 10.0 mi SSW 11.5 mph 18.4 mph N/A   Scattered Clouds
8:55 PM 62.6 °F 56.7 °F 81% 29.71 in 10.0 mi SSW 9.2 mph - N/A   Scattered Clouds
9:15 PM 62.6 °F 56.7 °F 81% 29.72 in 10.0 mi SSW 8.1 mph - N/A   Mostly Cloudy
9:35 PM 62.6 °F 56.5 °F 80% 29.72 in 10.0 mi SSW 10.4 mph - N/A   Mostly Cloudy
9:55 PM 62.1 °F 56.3 °F 81% 29.72 in 10.0 mi SSW 11.5 mph - N/A   Scattered Clouds
10:15 PM 61.5 °F 56.1 °F 82% 29.73 in 10.0 mi SSW 9.2 mph - N/A   Scattered Clouds
10:35 PM 61.9 °F 55.8 °F 80% 29.74 in 10.0 mi SSW 13.8 mph - N/A   Scattered Clouds
10:55 PM 61.9 °F 55.0 °F 78% 29.75 in 10.0 mi SSW 13.8 mph 20.7 mph N/A   Mostly Cloudy
11:15 PM 61.7 °F 54.0 °F 76% 29.76 in 10.0 mi SW 13.8 mph - N/A   Scattered Clouds
11:35 PM 61.9 °F 52.7 °F 72% 29.77 in 10.0 mi WSW 15.0 mph 21.9 mph N/A   Mostly Cloudy
11:55 PM 61.0 °F 52.0 °F 72% 29.78 in 10.0 mi West 17.3 mph 24.2 mph N/A   Overcast